| time (UTC) | temp C | wind direction | speed KPH | gust KPH | rain 1hr cm | rain 24hr cm | rain mn cm | humidity % | barometer mb |
| 20260504130338 | 22 | 0 | 0.0 | 0.0 | 0.00 | 0.00 | 0.00 | 10 | 1011.0 |
| 20260504110335 | 22 | 112 | 1.6 | 6.4 | 0.00 | 0.00 | 0.00 | 75 | 1010.0 |
| 20260504100333 | 24 | 138 | 3.2 | 6.4 | 0.00 | 0.00 | 0.00 | 75 | 1010.0 |
| 20260504081330 | 23 | 135 | 4.8 | 6.4 | 0.00 | 0.00 | 0.00 | 74 | 1010.0 |
| 20260504080330 | 23 | 135 | 4.8 | 6.4 | 0.00 | 0.00 | 0.00 | 74 | 1010.0 |
| 20260504070328 | 23 | 93 | 4.8 | 8.0 | 0.00 | 0.00 | 0.00 | 72 | 1011.0 |
| 20260504050324 | 26 | 55 | 3.2 | 4.8 | 0.00 | 0.00 | 0.00 | 68 | 1012.0 |
| 20260504045324 | 24 | 332 | 4.8 | 11.3 | 0.00 | 0.00 | 0.00 | 67 | 1012.0 |
| 20260504044324 | 25 | 332 | 4.8 | 11.3 | 0.00 | 0.00 | 0.00 | 67 | 1012.0 |
| 20260504043323 | 25 | 332 | 4.8 | 11.3 | 0.00 | 0.00 | 0.00 | 67 | 1012.0 |
| 20260504042323 | 26 | 332 | 4.8 | 11.3 | 0.00 | 0.00 | 0.00 | 67 | 1012.0 |
| 20260504041323 | 23 | 299 | 4.8 | 8.0 | 0.00 | 0.00 | 0.00 | 66 | 1012.0 |
| 20260504040322 | 24 | 299 | 4.8 | 8.0 | 0.00 | 0.00 | 0.00 | 66 | 1012.0 |
| 20260504035322 | 25 | 299 | 4.8 | 8.0 | 0.00 | 0.00 | 0.00 | 66 | 1012.0 |
| 20260504034322 | 25 | 299 | 4.8 | 8.0 | 0.00 | 0.00 | 0.00 | 66 | 1012.0 |
| 20260504033321 | 26 | 299 | 4.8 | 8.0 | 0.00 | 0.00 | 0.00 | 66 | 1012.0 |
| 20260504032321 | 26 | 299 | 4.8 | 8.0 | 0.00 | 0.00 | 0.00 | 66 | 1011.0 |
| 20260504031320 | 27 | 299 | 4.8 | 9.7 | 0.00 | 0.00 | 0.00 | 66 | 1011.0 |
| 20260504030320 | 27 | 299 | 4.8 | 9.7 | 0.00 | 0.00 | 0.00 | 66 | 1011.0 |
| 20260504025320 | 23 | 269 | 1.6 | 8.0 | 0.00 | 0.00 | 0.00 | 66 | 1011.0 |
| 20260504024320 | 24 | 269 | 1.6 | 8.0 | 0.00 | 0.00 | 0.00 | 66 | 1011.0 |
| 20260504023319 | 25 | 269 | 1.6 | 8.0 | 0.00 | 0.00 | 0.00 | 66 | 1011.0 |
| 20260504022319 | 25 | 269 | 1.6 | 8.0 | 0.00 | 0.00 | 0.00 | 66 | 1011.0 |
| 20260504021319 | 26 | 269 | 1.6 | 8.0 | 0.00 | 0.00 | 0.00 | 66 | 1011.0 |
| 20260504020318 | 26 | 269 | 1.6 | 8.0 | 0.00 | 0.00 | 0.00 | 66 | 1011.0 |
| 20260504015318 | 27 | 269 | 3.2 | 9.7 | 0.00 | 0.00 | 0.00 | 66 | 1011.0 |
| 20260504014318 | 24 | 212 | 12.9 | 12.9 | 0.00 | 0.00 | 0.00 | 57 | 1011.0 |
| 20260504013317 | 25 | 212 | 12.9 | 12.9 | 0.00 | 0.00 | 0.00 | 57 | 1011.0 |
| 20260504012317 | 25 | 212 | 12.9 | 12.9 | 0.00 | 0.00 | 0.00 | 57 | 1010.0 |
| 20260504011316 | 26 | 212 | 12.9 | 12.9 | 0.00 | 0.00 | 0.00 | 57 | 1010.0 |
| 20260504010316 | 26 | 212 | 12.9 | 12.9 | 0.00 | 0.00 | 0.00 | 57 | 1010.0 |
| 20260504004315 | 26 | 212 | 12.9 | 12.9 | 0.00 | 0.00 | 0.00 | 57 | 1010.0 |
| 20260504003315 | 27 | 212 | 12.9 | 12.9 | 0.00 | 0.00 | 0.00 | 57 | 1009.0 |
| 20260504002315 | 27 | 212 | 12.9 | 12.9 | 0.00 | 0.00 | 0.00 | 57 | 1009.0 |
| 20260504001315 | 28 | 212 | 12.9 | 12.9 | 0.00 | 0.00 | 0.00 | 57 | 1009.0 |
| 20260504000314 | 28 | 212 | 12.9 | 12.9 | 0.00 | 0.00 | 0.00 | 57 | 1009.0 |
| 20260503235314 | 29 | 212 | 12.9 | 12.9 | 0.00 | 0.00 | 0.00 | 57 | 1009.0 |
| 20260503234314 | 30 | 212 | 12.9 | 12.9 | 0.00 | 0.00 | 0.00 | 57 | 1009.0 |
| 20260503233314 | 30 | 212 | 12.9 | 12.9 | 0.00 | 0.00 | 0.00 | 57 | 1007.0 |
| 20260503232313 | 31 | 212 | 12.9 | 12.9 | 0.00 | 0.00 | 0.00 | 57 | 1007.0 |
| 20260503231313 | 31 | 212 | 12.9 | 14.5 | 0.00 | 0.00 | 0.00 | 57 | 1007.0 |
| 20260503230312 | 26 | 211 | 12.9 | 11.3 | 0.00 | 0.00 | 0.00 | 54 | 1007.0 |
| 20260503225312 | 27 | 211 | 12.9 | 11.3 | 0.00 | 0.00 | 0.00 | 54 | 1007.0 |
| 20260503224312 | 27 | 211 | 12.9 | 11.3 | 0.00 | 0.00 | 0.00 | 54 | 1007.0 |
| 20260503223312 | 28 | 211 | 12.9 | 11.3 | 0.00 | 0.00 | 0.00 | 54 | 1007.0 |
| 20260503222311 | 28 | 211 | 12.9 | 11.3 | 0.00 | 0.00 | 0.00 | 54 | 1007.0 |
| 20260503221311 | 29 | 211 | 12.9 | 11.3 | 0.00 | 0.00 | 0.00 | 54 | 1007.0 |
| 20260503220311 | 30 | 211 | 12.9 | 11.3 | 0.00 | 0.00 | 0.00 | 54 | 1007.0 |
| 20260503215310 | 30 | 211 | 12.9 | 11.3 | 0.00 | 0.00 | 0.00 | 54 | 1007.0 |
| 20260503214310 | 31 | 211 | 12.9 | 11.3 | 0.00 | 0.00 | 0.00 | 54 | 1007.0 |
| 20260503213310 | 31 | 211 | 12.9 | 11.3 | 0.00 | 0.00 | 0.00 | 54 | 1007.0 |
| 20260503212309 | 28 | 224 | 12.9 | 12.9 | 0.00 | 0.00 | 0.00 | 50 | 1008.0 |
| 20260503211309 | 29 | 224 | 12.9 | 12.9 | 0.00 | 0.00 | 0.00 | 50 | 1008.0 |
| 20260503210308 | 30 | 224 | 12.9 | 12.9 | 0.00 | 0.00 | 0.00 | 50 | 1008.0 |
| 20260503205308 | 30 | 224 | 12.9 | 12.9 | 0.00 | 0.00 | 0.00 | 50 | 1008.0 |
| 20260503204307 | 31 | 224 | 12.9 | 12.9 | 0.00 | 0.00 | 0.00 | 50 | 1008.0 |
| 20260503203307 | 31 | 224 | 12.9 | 12.9 | 0.00 | 0.00 | 0.00 | 50 | 1008.0 |
| 20260503202307 | 31 | 224 | 14.5 | 12.9 | 0.00 | 0.00 | 0.00 | 50 | 1009.0 |
| 20260503201307 | 28 | 232 | 12.9 | 12.9 | 0.00 | 0.00 | 0.00 | 50 | 1009.0 |
| 20260503200306 | 29 | 232 | 12.9 | 12.9 | 0.00 | 0.00 | 0.00 | 50 | 1009.0 |
| 20260503195306 | 30 | 232 | 12.9 | 12.9 | 0.00 | 0.00 | 0.00 | 50 | 1009.0 |
| 20260503194305 | 30 | 232 | 12.9 | 12.9 | 0.00 | 0.00 | 0.00 | 50 | 1009.0 |
| 20260503193305 | 31 | 232 | 12.9 | 12.9 | 0.00 | 0.00 | 0.00 | 50 | 1009.0 |
| 20260503192305 | 31 | 232 | 12.9 | 12.9 | 0.00 | 0.00 | 0.00 | 50 | 1010.0 |
| 20260503191304 | 32 | 232 | 14.5 | 12.9 | 0.00 | 0.00 | 0.00 | 50 | 1010.0 |
| 20260503190304 | 29 | 220 | 8.0 | 8.0 | 0.00 | 0.00 | 0.00 | 54 | 1010.0 |
| 20260503185305 | 30 | 220 | 8.0 | 8.0 | 0.00 | 0.00 | 0.00 | 54 | 1010.0 |
| 20260503184303 | 30 | 220 | 8.0 | 8.0 | 0.00 | 0.00 | 0.00 | 54 | 1010.0 |
| 20260503183303 | 31 | 220 | 8.0 | 8.0 | 0.00 | 0.00 | 0.00 | 54 | 1010.0 |
| 20260503182305 | 31 | 220 | 8.0 | 8.0 | 0.00 | 0.00 | 0.00 | 54 | 1011.0 |
| 20260503181302 | 32 | 220 | 9.7 | 8.0 | 0.00 | 0.00 | 0.00 | 54 | 1011.0 |
| 20260503180302 | 29 | 217 | 1.6 | 8.0 | 0.00 | 0.00 | 0.00 | 55 | 1011.0 |
| 20260503175304 | 30 | 217 | 1.6 | 8.0 | 0.00 | 0.00 | 0.00 | 55 | 1011.0 |
| 20260503173302 | 30 | 217 | 1.6 | 8.0 | 0.00 | 0.00 | 0.00 | 55 | 1012.0 |
| 20260503172301 | 31 | 217 | 1.6 | 8.0 | 0.00 | 0.00 | 0.00 | 55 | 1012.0 |
| 20260503171301 | 31 | 217 | 1.6 | 8.0 | 0.00 | 0.00 | 0.00 | 55 | 1012.0 |
| 20260503170300 | 32 | 217 | 3.2 | 8.0 | 0.00 | 0.00 | 0.00 | 55 | 1012.0 |
| 20260503150257 | 28 | 323 | 1.6 | 1.6 | 0.00 | 0.00 | 0.00 | 61 | 1012.0 |
| 20260503140255 | 27 | 87 | 0.0 | 1.6 | 0.00 | 0.00 | 0.00 | 66 | 1012.0 |